OPS 9342 (IDSCS 20)

导读

OPS 9342又称IDSCS 20,是美国于1968年6月13日发射的一颗军事通信卫星,属于初期国防卫星通信系统(IDSCS)系列。该系列卫星是美国早期国防通信卫星体系的重要组成部分,主要为美军提供远程战略通信支持,标志着美国在冷战时期构建全球军事通信网络的重要探索,为后续第二代DSCS系列卫星发展积累了技术经验。作为冷战空间技术竞争背景下的产物,它见证了早期卫星通信技术的发展历程。

基本信息
目录编号:
3285
目录名称:
OPS 9342 (IDSCS 20)
国际标识:
1968-050B
轨道中心:
EARTH
卫星名称:
OPS 9342 (IDSCS 20)
卫星全名:
--
卫星状态:
在轨 (已飞行21215 天)
发射日期:
1968-06-13 UTC
国别 :
美国 (US)
星等 :
--
轨道信息
数据来源 国际轨道数据
星历时间: 2026-07-13T09:10:08+0800
1天前
查看轨道信息
半长轴: 40173.275km
偏心率: 0.0015515
轨道倾角: 7.289°
近地点辐角 152.403°
升交点赤经 51.481°
平近点角 37.197°
近地点: 33732.809km
远地点: 33857.467km
周期: 1335.567分钟
每日圈数: 1.078194
详细信息
使用方式:
暂无
2D轨道图
3D轨道图
轨道高度分析图
轨道倾角分析图
轨道综合分析图
查看轨道综合分析图